Location: Caltech
(34.1382°N, 118.1253°W)
Time: 14:32:28
(UTC-07:00)

TMSAT-1 - Visible Passes

Search period start: 28 March 2017 00:00
Search period end: 07 April 2017 00:00
Orbit: 809 x 812 km, 98.6° (Epoch: 27 March)

Date Brightness Start Highest point End Pass type
(mag) Time Alt. Az. Time Alt. Az. Time Alt. Az.
28 Mar 12.0 02:43:44 10° NNE 02:43:54 11° NNE 02:43:54 11° NNE visible
29 Mar 11.5 04:00:50 10° NNW 04:01:17 12° NNW 04:01:17 12° NNW visible
30 Mar 11.5 03:36:39 10° N 03:37:30 14° N 03:37:30 14° N visible
31 Mar 11.6 03:12:48 10° N 03:13:44 15° N 03:13:44 15° N visible
01 Apr 11.8 02:49:11 10° NNE 02:49:57 14° NNE 02:49:57 14° NNE visible
02 Apr 12.0 02:25:51 10° NNE 02:26:10 12° NNE 02:26:10 12° NNE visible
02 Apr 11.4 04:06:32 10° NNW 04:07:20 13° NNW 04:07:20 13° NNW visible
03 Apr 11.3 03:42:15 10° N 03:43:32 17° NNW 03:43:32 17° NNW visible
04 Apr 11.3 03:18:20 10° N 03:19:46 19° N 03:19:46 19° N visible
05 Apr 11.5 02:54:39 10° NNE 02:55:59 18° NNE 02:55:59 18° NNE visible
06 Apr 11.7 02:31:15 10° NNE 02:32:12 15° NNE 02:32:12 15° NNE visible
06 Apr 11.3 04:12:16 10° NNW 04:13:22 14° NNW 04:13:22 14° NNW visible
